WetterOnline ( http://www.wetteronline.de )

Wetter aktuell Nürburg

Aktuelles Wetter: Nürburg-Barweiler (488m)

6-stündlich | Neueste Meldungen
Ortszeit Temperatur Wetter
Do, 19.04. 20:00 21.7° C wolkenlos
Do, 19.04. 14:00 22.9° C leicht bewölkt
Do, 19.04. 8:00 16.4° C leicht bewölkt
Do, 19.04. 2:00 16.8° C fast wolkenlos
Mi, 18.04. 20:00 20.4° C fast wolkenlos
Mi, 18.04. 14:00 21.7° C fast wolkenlos
Mi, 18.04. 8:00 8.9° C wolkenlos
Mi, 18.04. 2:00 11.0° C bedeckt
Ortszeit Temperatur Wetter
Do, 19.04. 21:30 20.0° C bedeckt
Do, 19.04. 21:10 20.3° C bedeckt
Do, 19.04. 21:00 20.6° C wolkig
Do, 19.04. 20:50 20.6° C leicht bewölkt
Do, 19.04. 20:40 20.5° C leicht bewölkt
Do, 19.04. 20:30 20.8° C wolkenlos
Do, 19.04. 20:00 21.7° C wolkenlos
Do, 19.04. 19:30 22.3° C bedeckt
Do, 19.04. 19:00 23.0° C wolkig
Do, 19.04. 18:30 23.4° C bedeckt
Ortszeit Relative Feuchte Sichtweite
Do, 19.04. 20:00 30% 40 km
Do, 19.04. 14:00 32% 27 km
Do, 19.04. 8:00 46% 29 km
Do, 19.04. 2:00 46% 26 km
Mi, 18.04. 20:00 42% 35 km
Mi, 18.04. 14:00 34% 30 km
Mi, 18.04. 8:00 71% 27 km
Mi, 18.04. 2:00 67% 35 km
Ortszeit Relative Feuchte Sichtweite
Do, 19.04. 21:30 37% 35 km
Do, 19.04. 21:10 36% -
Do, 19.04. 21:00 34% 40 km
Do, 19.04. 20:50 34% -
Do, 19.04. 20:40 35% -
Do, 19.04. 20:30 33% 40 km
Do, 19.04. 20:00 30% 40 km
Do, 19.04. 19:30 29% 40 km
Do, 19.04. 19:00 28% 25 km
Do, 19.04. 18:30 28% 35 km
Ortszeit Niederschlagsmenge Niederschlagsart
Do, 19.04. 20:00 0.0 l/m2 in 12 Std. -
Do, 19.04. 14:00 0.0 l/m2 in 6 Std. -
Do, 19.04. 8:00 0.0 l/m2 in 12 Std. -
Do, 19.04. 2:00 0.0 l/m2 in 6 Std. -
Mi, 18.04. 20:00 0.0 l/m2 in 12 Std. -
Mi, 18.04. 14:00 0.0 l/m2 in 6 Std. -
Mi, 18.04. 8:00 0.0 l/m2 in 12 Std. -
Mi, 18.04. 2:00 0.0 l/m2 in 6 Std. -
Ortszeit Niederschlagsmenge Niederschlagsart
Do, 19.04. 21:30 0.0 l/m2 in 1 Std. -
Do, 19.04. 21:10 keine Meldung -
Do, 19.04. 21:00 0.0 l/m2 in 1 Std. -
Do, 19.04. 20:50 keine Meldung -
Do, 19.04. 20:40 keine Meldung -
Do, 19.04. 20:30 0.0 l/m2 in 1 Std. -
Do, 19.04. 20:00 0.0 l/m2 in 1 Std. -
Do, 19.04. 19:30 0.0 l/m2 in 1 Std. -
Do, 19.04. 19:00 0.0 l/m2 in 1 Std. -
Do, 19.04. 18:30 0.0 l/m2 in 1 Std. -
Ortszeit Stärke Spitze Richtung
km/h Bft. km/h Grad Sektor
Do, 19.04. 20:00 9 2 37 120° SO
Do, 19.04. 14:00 14 3 36 100° O
Do, 19.04. 8:00 6 1 28 130° SO
Do, 19.04. 2:00 13 3 24 120° SO
Mi, 18.04. 20:00 11 2 35 100° O
Mi, 18.04. 14:00 9 2 26 110° O
Mi, 18.04. 8:00 4 1 11 210° SW
Mi, 18.04. 2:00 4 1 11 230° SW
Ortszeit Stärke Spitze Richtung
km/h Bft. km/h Grad Sektor
Do, 19.04. 21:30 11 2 17 130° SO
Do, 19.04. 21:10 11 2 - 140° SO
Do, 19.04. 21:00 11 2 18 130° SO
Do, 19.04. 20:50 11 2 - 130° SO
Do, 19.04. 20:40 11 2 - 120° SO
Do, 19.04. 20:30 11 2 18 120° SO
Do, 19.04. 20:00 9 2 28 120° SO
Do, 19.04. 19:30 14 3 29 120° SO
Do, 19.04. 19:00 14 3 29 110° O
Do, 19.04. 18:30 14 3 29 110° O
Ortszeit Untergrenze Bedeckung Gattung
total tief tief mittel hoch
Do, 19.04. 20:00 - 0/8 0/8 - - -
Do, 19.04. 14:00 2100 m 5/8 1/8 - - -
Do, 19.04. 8:00 2700 m 2/8 2/8 - - -
Do, 19.04. 2:00 12000 m 1/8 0/8 - - -
Mi, 18.04. 20:00 2700 m 1/8 1/8 - - -
Mi, 18.04. 14:00 10500 m 2/8 0/8 - - -
Mi, 18.04. 8:00 - 0/8 0/8 - - -
Mi, 18.04. 2:00 - 8/8 - - - -
Ortszeit Bedeckungsgrad in Achtel und Wolkenuntergrenze
Do, 19.04. 21:30 9 9 9
Do, 19.04. 21:10 9 9 9
Do, 19.04. 21:00 3(3900m) 9 9
Do, 19.04. 20:50 3(3900m)
Do, 19.04. 20:40 2(3900m)
Do, 19.04. 20:30 9 9 9
Do, 19.04. 20:00 keine Wolken
Do, 19.04. 19:30 1(3900m) 9 9
Do, 19.04. 19:00 9 9 9
Do, 19.04. 18:30 9 9 9
Ortszeit Luftdruck NN (hPa) Tendenz (hPa in 3 Std.)
Do, 19.04. 20:00 1025 - 0,6
Do, 19.04. 14:00 1026 - 0,7
Do, 19.04. 8:00 1028 - 0,2
Do, 19.04. 2:00 1029 - 0,7
Mi, 18.04. 20:00 1028 - 0,8
Mi, 18.04. 14:00 1030 - 0,5
Mi, 18.04. 8:00 1032 + 1,0
Mi, 18.04. 2:00 1030 + 0,9
Ortszeit Luftdruck NN (hPa) Tendenz (hPa in 3 Std.)
Do, 19.04. 21:30 1025 + 0,1
Do, 19.04. 21:10 1025 keine Meldung
Do, 19.04. 21:00 1025 - 0,1
Do, 19.04. 20:50 1025 keine Meldung
Do, 19.04. 20:40 1025 keine Meldung
Do, 19.04. 20:30 1025 - 0,1
Do, 19.04. 20:00 1025 - 0,6
Do, 19.04. 19:30 1024 - 0,7
Do, 19.04. 19:00 1024 - 0,9
Do, 19.04. 18:30 1024 - 1,1
Ortszeit Schneehöhe (cm)
Do, 19.04. 20:00 -
Do, 19.04. 14:00 -
Do, 19.04. 8:00 -
Do, 19.04. 2:00 -
Mi, 18.04. 20:00 -
Mi, 18.04. 14:00 0
Mi, 18.04. 8:00 0
Mi, 18.04. 2:00 0
Ortszeit Schneehöhe (cm)
Do, 19.04. 21:30 -
Do, 19.04. 21:10 -
Do, 19.04. 21:00 -
Do, 19.04. 20:50 -
Do, 19.04. 20:40 -
Do, 19.04. 20:30 -
Do, 19.04. 20:00 -
Do, 19.04. 19:30 -
Do, 19.04. 19:00 -
Do, 19.04. 18:30 -
Link zu dieser Seite / Seite empfehlen

Das Wetter in ...